Latest Coastal Weather Observations for Point Fawcett

IDD60701

Issued at 2:25 am CST Thursday 24 April 2014 (issued every 10 minutes, with the page automatically refreshed every 10 minutes)

About coastal observations | Map of coastal stations | Coastal observations for NT | Marine services | Other Formats
Station Details ID: 200731 Name: POINT FAWCETT Lat: -11.76 Lon: 130.03 Height: 6.5 m
Data from the previous 72 hours. | See also: Recent months at Point Fawcett
Date/Time
CST
Temp

°C
Wind Pressure Rain
since 9am
mm
Weather Cloud Vis
km
Sea
Height
m
Swell
Dir
 
Speed
knots
Gust
knots
hPa Trend Height
m
Period
s
Dir
24/02:00am 29.1 SW 8 11 1006.6 - - - - - - - - -
24/01:30am 29.1 SW 8 11 1007.1 - - - - - - - - -
24/01:00am 29.1 SW 8 11 1007.5 - - - - - - - - -
24/12:30am 29.1 SW 7 9 1008.0 - - - - - - - - -
24/12:00am 29.0 WSW 7 10 1008.2 - - - - - - - - -
 
Date/Time
CST
Temp

°C
Wind Pressure Rain
since 9am
mm
Weather Cloud Vis
km
Sea
Height
m
Swell
Dir
 
Speed
knots
Gust
knots
hPa Trend Height
m
Period
s
Dir
23/11:30pm 29.1 WSW 7 10 1008.5 - - - - - - - - -
23/11:00pm 29.2 SW 7 11 1008.8 - - - - - - - - -
23/10:30pm 29.2 WSW 8 11 1008.8 - - - - - - - - -
23/10:00pm 29.3 WSW 8 12 1008.8 - - - - - - - - -
23/09:30pm 29.5 WSW 8 10 1008.6 - - - - - - - - -
23/09:00pm 29.2 WSW 8 11 1008.0 - - - - - - - - -
23/08:30pm 29.3 WSW 8 11 1007.7 - - - - - - - - -
23/08:00pm 29.3 WSW 8 12 1007.4 - - - - - - - - -
23/07:30pm 29.2 SW 7 11 1007.2 - - - - - - - - -
23/07:00pm 29.3 WSW 8 11 1006.9 - - - - - - - - -
23/06:30pm 29.5 WSW 7 10 1006.5 - - - - - - - - -
23/06:00pm 30.3 WSW 7 9 1006.1 - - - - - - - - -
23/05:30pm 31.1 SW 7 9 1005.9 - - - - - - - - -
23/05:00pm 31.3 SW 7 10 1005.5 - - - - - - - - -
23/04:30pm 31.8 SSW 6 9 1005.5 - - - - - - - - -
23/04:00pm 31.4 SSW 7 10 1005.5 - - - - - - - - -
23/03:30pm 31.8 S 6 11 1005.8 - - - - - - - - -
23/03:00pm 31.7 SSW 6 10 1006.0 - - - - - - - - -
23/02:30pm 32.3 S 8 12 1006.5 - - - - - - - - -
23/02:00pm 32.2 S 7 11 1006.8 - - - - - - - - -
23/01:30pm 32.9 S 5 7 1007.1 - - - - - - - - -
23/01:00pm 32.9 SE 6 9 1007.6 - - - - - - - - -
23/12:30pm 32.4 ESE 5 10 1007.9 - - - - - - - - -
23/12:00pm 32.5 SSE 7 12 1008.2 - - - - - - - - -
23/11:30am 32.4 ESE 7 12 1008.7 - - - - - - - - -
23/11:00am 32.1 ESE 7 12 1009.1 - - - - - - - - -
23/10:30am 32.2 SE 6 11 1009.3 - - - - - - - - -
23/10:00am 31.0 ESE 6 10 1009.1 - - - - - - - - -
23/09:30am 29.8 SSE 7 11 1009.0 - - - - - - - - -
23/09:00am 29.1 SSE 5 8 1008.9 - - - - - - - - -
23/08:30am 27.5 SE 3 5 1009.0 - - - - - - - - -
23/08:00am 26.5 SE 3 4 1008.8 - - - - - - - - -
23/07:30am 24.8 SSE 4 4 1008.4 - - - - - - - - -
23/07:00am 24.2 SSE 4 5 1008.3 - - - - - - - - -
23/06:30am 24.4 SE 4 5 1008.3 - - - - - - - - -
23/06:00am 24.4 SE 4 4 1008.3 - - - - - - - - -
23/05:30am 24.3 SSE 3 4 1008.4 - - - - - - - - -
23/05:00am 24.3 SSE 3 4 1008.3 - - - - - - - - -
23/04:30am 24.2 SSE 3 4 1008.1 - - - - - - - - -
23/04:00am 24.1 SSE 4 5 1007.7 - - - - - - - - -
23/03:30am 24.1 SSE 4 5 1007.4 - - - - - - - - -
23/03:00am 24.0 SSE 4 6 1007.5 - - - - - - - - -
23/02:30am 23.9 S 5 6 1007.7 - - - - - - - - -
23/02:00am 23.9 ESE 4 5 1008.2 - - - - - - - - -
23/01:30am 23.8 SSE 4 5 1008.5 - - - - - - - - -
23/01:00am 24.0 SSE 4 5 1008.7 - - - - - - - - -
23/12:30am 24.2 SE 4 4 1009.5 - - - - - - - - -
23/12:00am 24.5 ESE 4 5 1009.7 - - - - - - - - -
 
Date/Time
CST
Temp

°C
Wind Pressure Rain
since 9am
mm
Weather Cloud Vis
km
Sea
Height
m
Swell
Dir
 
Speed
knots
Gust
knots
hPa Trend Height
m
Period
s
Dir
22/11:30pm 24.9 S 3 3 1009.6 - - - - - - - - -
22/11:00pm 25.7 SW 5 8 1009.6 - - - - - - - - -
22/10:30pm 24.8 SSW 4 5 1009.9 - - - - - - - - -
22/10:00pm 24.8 SSW 5 7 1010.1 - - - - - - - - -
22/09:30pm 24.7 SSW 4 5 1009.8 - - - - - - - - -
22/09:00pm 24.8 S 4 5 1009.3 - - - - - - - - -
22/08:30pm 24.9 S 4 5 1009.4 - - - - - - - - -
22/08:00pm 25.3 S 4 5 1009.0 - - - - - - - - -
22/07:30pm 25.8 SSE 3 4 1008.7 - - - - - - - - -
22/07:00pm 26.9 S 4 4 1008.2 - - - - - - - - -
22/06:30pm 28.9 S 3 4 1008.1 - - - - - - - - -
22/06:00pm 30.5 S 2 3 1007.7 - - - - - - - - -
22/05:30pm 30.9 ESE 3 6 1007.6 - - - - - - - - -
22/05:00pm 31.7 SE 5 7 1007.4 - - - - - - - - -
22/04:30pm 31.5 SSE 6 10 1007.0 - - - - - - - - -
22/04:00pm 32.0 SE 6 10 1006.8 - - - - - - - - -
22/03:30pm 31.7 SE 6 10 1006.8 - - - - - - - - -
22/03:00pm 31.4 SE 7 14 1006.8 - - - - - - - - -
22/02:30pm 31.1 SSE 7 13 1007.5 - - - - - - - - -
22/02:00pm 31.0 ESE 6 11 1007.7 - - - - - - - - -
22/01:30pm 31.1 SE 5 8 1008.1 - - - - - - - - -
22/01:00pm 31.2 SE 6 9 1008.7 - - - - - - - - -
22/12:30pm 30.6 ESE 7 13 1009.1 - - - - - - - - -
22/12:00pm 31.6 SE 9 14 1009.5 - - - - - - - - -
22/11:30am 31.6 SE 7 13 1010.0 - - - - - - - - -
22/11:00am 31.4 ESE 8 13 1010.7 - - - - - - - - -
22/10:30am 30.9 ESE 8 13 1010.9 - - - - - - - - -
22/10:00am 30.2 E 4 6 1010.8 - - - - - - - - -
22/09:30am 29.0 ENE 5 7 1010.8 - - - - - - - - -
22/09:00am 27.8 ENE 4 6 1010.7 - - - - - - - - -
22/08:30am 27.4 ENE 4 5 1010.5 - - - - - - - - -
22/08:00am 27.0 SSE 3 3 1010.1 - - - - - - - - -
22/07:30am 26.2 SSE 3 4 1009.9 - - - - - - - - -
22/07:00am 25.5 S 4 5 1009.4 - - - - - - - - -
22/06:30am 24.9 SSE 4 5 1009.2 - - - - - - - - -
22/06:00am 25.1 S 5 7 1009.0 - - - - - - - - -
22/05:30am 24.7 S 4 6 1009.0 - - - - - - - - -
22/05:00am 24.7 S 4 5 1008.9 - - - - - - - - -
22/04:30am 24.6 S 4 5 1008.8 - - - - - - - - -
22/04:00am 24.5 S 4 6 1008.9 - - - - - - - - -
22/03:30am 23.8 S 4 6 1009.0 - - - - - - - - -
22/03:00am 23.7 SSE 4 4 1009.0 - - - - - - - - -
22/02:30am 23.6 SSE 4 4 1009.0 - - - - - - - - -
22/02:00am 23.6 SSE 4 4 1009.2 - - - - - - - - -
22/01:30am 23.8 SSE 4 4 1009.6 - - - - - - - - -
22/01:00am 24.3 S 5 7 1010.0 - - - - - - - - -
22/12:30am 24.5 ESE 4 5 1010.2 - - - - - - - - -
22/12:00am 25.1 E 5 6 1010.2 - - - - - - - - -
 
Date/Time
CST
Temp

°C
Wind Pressure Rain
since 9am
mm
Weather Cloud Vis
km
Sea
Height
m
Swell
Dir
 
Speed
knots
Gust
knots
hPa Trend Height
m
Period
s
Dir
21/11:30pm 25.3 E 5 6 1010.5 - - - - - - - - -
21/11:00pm 25.4 E 5 7 1010.3 - - - - - - - - -
21/10:30pm 25.2 E 4 5 1010.2 - - - - - - - - -
21/10:00pm 25.7 E 4 6 1010.2 - - - - - - - - -
21/09:30pm 26.2 ENE 4 5 1010.2 - - - - - - - - -
21/09:00pm 26.9 ENE 5 6 1010.0 - - - - - - - - -
21/08:30pm 27.3 ENE 5 7 1009.9 - - - - - - - - -
21/08:00pm 27.4 ENE 6 9 1009.7 - - - - - - - - -
21/07:30pm 27.5 E 4 6 1009.6 - - - - - - - - -
21/07:00pm 28.1 E 4 6 1009.3 - - - - - - - - -
21/06:30pm 28.9 ESE 5 8 1009.3 - - - - - - - - -
21/06:00pm 29.5 ESE 7 10 1009.0 - - - - - - - - -
21/05:30pm 30.2 ESE 6 10 1008.9 - - - - - - - - -
21/05:00pm 30.4 ESE 7 11 1008.4 - - - - - - - - -
21/04:30pm 30.8 ESE 9 15 1008.2 - - - - - - - - -
21/04:00pm 30.5 ESE 7 14 1008.2 - - - - - - - - -
21/03:30pm 31.6 ESE 6 11 1008.1 - - - - - - - - -
21/03:00pm 31.7 ESE 9 15 1008.1 - - - - - - - - -
21/02:30pm 32.6 ESE 7 12 1008.2 - - - - - - - - -
21/02:00pm 32.4 ESE 8 12 1008.5 - - - - - - - - -
21/01:30pm 32.5 ESE 8 13 1008.9 - - - - - - - - -
21/01:00pm 32.0 SE 7 11 1009.1 - - - - - - - - -
21/12:30pm 32.3 E 7 11 1009.5 - - - - - - - - -
21/12:00pm 32.0 SE 7 11 1009.8 - - - - - - - - -
21/11:30am 32.0 ESE 6 9 1010.2 - - - - - - - - -
21/11:00am 31.6 E 6 11 1010.4 - - - - - - - - -
21/10:30am 30.8 E 8 12 1010.6 - - - - - - - - -
21/10:00am 30.6 E 7 11 1010.6 - - - - - - - - -
21/09:30am 30.3 ESE 6 9 1010.4 - - - - - - - - -
21/09:00am 29.5 ESE 4 7 1010.1 - - - - - - - - -
21/08:30am 28.2 E 4 6 1010.1 - - - - - - - - -
21/08:00am 26.2 E 4 6 1009.9 - - - - - - - - -
21/07:30am 24.1 SE 4 4 1009.7 - - - - - - - - -
21/07:00am 23.4 ESE 4 5 1009.4 - - - - - - - - -
21/06:30am 23.5 SE 4 5 1009.2 - - - - - - - - -
21/06:00am 23.7 SE 4 4 1008.8 - - - - - - - - -
21/05:30am 24.0 E 4 6 1008.7 - - - - - - - - -
21/05:00am 24.2 E 4 5 1008.6 - - - - - - - - -
21/04:30am 24.2 E 4 5 1008.7 - - - - - - - - -
21/04:00am 24.2 ESE 4 5 1008.8 - - - - - - - - -
21/03:30am 24.3 E 4 5 1008.8 - - - - - - - - -
21/03:00am 25.0 ESE 4 5 1008.9 - - - - - - - - -
21/02:30am 24.7 E 3 5 1009.2 - - - - - - - - -

Other Formats:

Comma delimited format used in spreadsheet applications
http://www.bom.gov.au/fwo/IDD60701/IDD60701.94122.axf

JavaScript Object Notation format (JSON) in row-major order
http://www.bom.gov.au/fwo/IDD60701/IDD60701.94122.json